Lid_Strength_Index
0 -0 -0 -0 -0 -1 -1 -1 -1 -1 -1 -1 -1 -1 -1 -1 -1 -1 -1 -1 -0 -0 -1 -1 -0 -1 -0 -0 -0 -0 0 1 2 1 -1 -1 -1 -1 -1 -2 -1 0 3
-0 -0 0 -0 -0 -0 -0 -0 -1 -1 -1 -1 -1 -1 -1 -1 -1 -1 -0 -0 -0 0 -0 -0 -0 -0 -1 -1 -0 -0 -0 -0 1 1 0 -0 -1 -1 -1 -1 -1 1 2
0 0 0 0 0 -0 -0 -0 -1 -1 -1 -1 -1 -1 -1 -1 -1 -1 -1 -0 -0 -0 -0 -0 -0 -0 -0 0 -0 0 0 0 -0 1 1 0 -1 -1 -0 -1 -1 -1 -0
0 0 0 0 0 -0 -0 -0 -0 -1 -1 -1 -1 -1 -1 -1 -1 -1 -1 -0 -0 -0 -1 -1 -0 -0 -0 -0 -0 -0 -0 0 0 1 1 1 0 -0 -0 1 1 -1 -0
1 1 0 0 -0 -0 -0 -0 -1 -1 -0 -1 -1 -1 -1 -0 -0 -1 -1 -0 -0 -0 -1 -1 -1 -1 2 1 0 -0 -0 0 1 1 2 0 1 1 1 0 1 1 0
1 1 0 0 0 0 -0 -0 -0 -0 -0 -0 -0 -0 -0 -0 3 2 0 -0 -0 -0 0 -0 -1 1 2 3 3 4 1 0 2 2 2 2 1 1 -0 0 1 1 3
1 1 1 1 1 0 -0 -0 0 0 -0 -0 -0 -0 -0 -0 5 4 3 -0 -0 -0 -0 -0 -0 -0 0 0 4 4 4 4 3 -0 1 1 1 1 0 1 0 0 2
2 1 1 1 1 1 0 1 1 -0 0 0 -0 -0 -0 -0 6 7 6 -0 -0 -0 -0 -0 -0 -0 -0 -0 -0 1 2 3 1 -1 -1 -0 -1 -1 -1 -1 -0 0 2
2 1 1 0 1 1 2 1 1 0 1 0 0 -0 0 -0 5 6 4 -0 0 0 -0 -1 -0 -0 3 4 0 4 6 7 8 7 7 7 7 6 3 -0 0 2 3
1 1 1 1 1 2 1 1 2 3 3 3 1 -0 4 -0 6 6 5 0 1 1 1 1 7 3 7 6 1 2 6 5 5 4 4 4 4 6 6 4 4 5 5
1 1 1 0 1 1 1 1 1 3 5 4 4 5 5 4 3 8 7 1 1 2 3 3 5 9 8 8 6 3 4 5 5 5 5 5 6 7 8 8 7 7 8
1 1 1 1 2 4 5 5 6 5 6 8 7 8 7 6 8 8 8 8 6 6 8 9 10 11 11 10 8 9 9 8 9 9 10 8 9 9 9 8 6 7 7
2 2 2 2 2 1 3 6 7 7 8 7 7 7 7 7 7 8 8 8 7 7 8 10 11 11 11 10 10 9 8 7 7 7 8 8 8 8 7 7 6 6 6
3 3 3 4 4 3 4 4 6 7 7 7 7 6 6 5 4 5 7 8 8 8 9 9 9 10 10 10 8 9 8 7 7 8 9 9 8 9 8 7 7 7 6
5 5 5 5 7 7 9 9 8 9 8 7 7 7 6 5 7 11 6 4 6 8 8 8 8 8 9 8 8 8 7 8 8 8 8 8 8 7 7 7 7 6 6
7 7 8 8 9 8 9 11 12 13 13 14 14 11 12 13 14 14 12 13 12 11 8 8 9 9 9 10 9 10 9 8 8 7 7 8 8 7 7 6 7 7 8
5 6 6 7 7 8 8 8 10 12 13 14 14 14 14 14 14 14 14 13 12 11 8 9 9 9 9 8 9 9 10 8 8 8 8 8 7 8 8 8 7 7 7
2 6 5 6 6 5 5 5 6 6 8 8 13 12 14 14 14 14 13 12 8 8 8 8 9 9 10 10 10 10 10 9 9 8 7 7 8 7 8 7 7 7 7
2 3 4 4 4 4 4 3 4 5 6 9 11 12 11 13 13 13 12 5 5 7 8 7 7 8 8 9 9 9 9 8 9 8 8 8 7 6 6 7 8 11 10
0 2 1 3 4 5 4 3 2 3 3 4 6 7 8 8 7 6 5 4 4 4 4 5 5 6 5 5 6 6 7 7 7 7 7 7 7 6 7 7 7 7 7
1 1 2 -0 1 2 3 3 3 4 4 4 4 4 8 4 4 4 4 4 3 3 3 4 4 4 4 5 5 6 7 7 7 7 7 7 7 7 6 6 6 6 6
0 0 0 0 0 1 1 1 2 2 3 4 4 5 8 4 3 3 3 3 2 2 2 2 3 3 4 4 5 5 6 7 7 7 7 7 7 7 6 6 6 6 5
-0 -0 0 0 -0 1 1 1 1 1 2 2 2 4 4 3 2 2 2 1 1 1 1 1 2 2 2 3 3 4 5 6 6 6 6 6 6 5 5 5 5 4 4
-0 0 1 1 1 1 1 1 1 4 2 2 2 2 2 2 2 1 1 1 1 1 1 1 1 1 1 1 2 2 3 3 3 4 3 4 4 5 4 4 4 4 3
0 0 1 1 2 2 1 1 1 1 1 1 1 1 1 1 1 1 1 0 0 0 0 1 1 1 1 1 2 2 5 8 3 5 2 2 2 2 3 2 2 2 3
0 0 0 1 1 1 1 1 1 1 1 1 1 1 1 1 0 -0 0 0 0 0 0 0 0 -0 0 0 1 4 11 9 5 9 2 1 1 1 1 1 2 2 3